Forside
METAR-TAF:

METAR-TAF

Lufthavne :

Burlington Municipal Airport

Burlington, Wisconsin, USA

Breddekreds: 42-41-26N, længdekreds: 088-18-17W, højde: 237 m

Aktuelle vejr

Denne rapport blev lavet for 23 minutter siden, kl. 11:15 UTC
Vind stille
Temperatur 12°C
Fugtighed 100%
Tryk 1020 hPa
Sigt: 4.0 km
skyfri

METAR: KBUU 121115Z AUTO 00000KT 2 1/2SM CLR 12/12 A3012 RMK AO2 VIS 3/4V5 T01180118 PWINO

Tid: 06:38 (11:38 UTC)


TAF: fraværende

Vejrobservationer og prognoser fra mere end 4000 lufthavne (METAR og TAF).

De gule og røde prikker repræsenterer de meteorologiske stationer.

Flyt musen over at se navnet på stationen.

Så klik over at se vejr observationer og prognoser.

At skifte det kort: Klik på de grønne knapper med et sort kors for at zoome ind; på den grønne knap med en bindestreg for at zoome ud; eller på de grønne pile for tilstødende kort.


METAR-TAF: